{"data":{"norad_id":63179,"intl_designator":"2025-047B","name":"PUNCH-WFI 1 (SMEX 15B)","alt_names":[],"object_type":"PAYLOAD","status":"ACTIVE","operator":null,"country":"US","launch_date":"2025-03-12","launch_site_code":"AFWTR","launch_vehicle":null,"mission":null,"orbit_class":"UNKNOWN","rcs_meters":null,"size_class":null,"mass_kg":null,"dimensions":null,"purposes":[],"wikipedia_slug":null,"has_3d_model":false,"image_url":null,"decayed_at":null,"tle_current":{"epoch":"2026-09-22T18:45:49.241088Z","epoch_age_seconds":114122,"freshness":"FRESH","line1":"1 63179U 25047B   26265.78181992  .00000324  00000+0  56333-4 0  9992","line2":"2 63179  97.9603  89.3812 0008027 217.9562 142.1082 14.74433205 82441","mean_motion":14.74433205,"eccentricity":0.0008027,"inclination_deg":97.9603,"raan_deg":89.3812,"arg_perigee_deg":217.9562,"mean_anomaly_deg":142.1082,"bstar":5.6333e-5,"rev_number":8244,"period_min":97.66464802317,"perigee_km":641.31202546948,"apogee_km":652.59010184688,"semimajor_km":7025.0880636582,"source":"CELESTRAK","updated_at":"2026-09-23T09:00:21.883985Z"}}}